Location: Aressy
(43.2833°N, 0.3167°W)
Time: 21:55:21
(UTC+00:00)

CSL-04 Rocket - Pass Details

Date: 28 January 2021
Orbit: 806 x 860 km, 98.9° (Epoch: 02 March)

Event Time Altitude Azimuth Distance (km) Brightness Sun altitude
Rises 19:35:43 0° 179° (S) 3,363 6.8 -26.9°
Reaches altitude 10° 19:38:07 10° 184° (S) 2,442 6.1 -27.3°
Maximum altitude 19:43:22 51° 260° (W) 1,060 4.5 -28.3°
Drops below altitude 10° 19:48:45 10° 336° (NNW) 2,490 6.4 -29.3°
Sets 19:51:13 0° 341° (NNW) 3,436 7.1 -29.7°
